Weather History for Great Bend, KS

Change the Weather History Date:

Sunday, February 3, 2013

  Actual Average Record
Temperature  
Mean Temperature 40 °F -  
Max Temperature 55 °F 43 °F 32 °F (2014)
Min Temperature 24 °F 21 °F 12 °F (2014)
Degree Days  
Heating Degree Days 26    
Moisture  
Dew Point 25 °F    
Average Humidity 58    
Maximum Humidity 80    
Minimum Humidity 33    
Precipitation  
Precipitation 0.00 in - - ()
Sea Level Pressure  
Sea Level Pressure 30.08 in    
Wind  
Wind Speed 10 mph (SSW)    
Max Wind Speed 26 mph    
Max Gust Speed 30 mph    
Visibility 10 miles    
Events      
Averages and records for this station are not official NWS values.
T = Trace of Precipitation, MM = Missing Value Source: NWS Daily Summary

Daily Weather History Graph

Daily Weather History Graph

Search for Another Location

Airport:

Trip Planner

Search our weather history database for the weather conditions in past years. The results will help you decide how hot, cold, wet, or windy it might be!

Date:

Astronomy

Feb. 03, 2013 Rise Set
Actual Time 7:38 AM CST 6:00 PM CST
Civil Twilight 7:10 AM CST 6:28 PM CST
Nautical Twilight 6:39 AM CST 6:59 PM CST
Astronomical Twilight 6:08 AM CST 7:30 PM CST
Moon 1:07 AM CST (2/3) 11:39 AM CST (2/3)
Length of Visible Light 11h 17m
Length of Day
10h 22m
Waning Gibbous, 48% of the Moon is Illuminated
Feb 3
Waning Gibbous
Feb 10
New
Feb 17
First Quarter
Feb 25
Full
Mar 4
Last Quarter

Hourly Weather History & Observations

Time (CST) Temp. Windchill Dew Point Humidity Pressure Visibility Wind Dir Wind Speed Gust Speed Precip Events Conditions
12:15 AM 33.8 °F 27.0 °F 24.8 °F 70% 30.28 in 10.0 mi WNW 8.1 mph - N/A   Clear
12:35 AM 32.0 °F 23.6 °F 23.0 °F 69% 30.28 in 10.0 mi WNW 10.4 mph - N/A   Clear
12:55 AM 32.0 °F 23.6 °F 24.8 °F 75% 30.28 in 10.0 mi WNW 10.4 mph - N/A   Clear
1:15 AM 32.0 °F 24.2 °F 23.0 °F 69% 30.28 in 10.0 mi WNW 9.2 mph - N/A   Clear
1:35 AM 32.0 °F 24.2 °F 23.0 °F 69% 30.27 in 10.0 mi WNW 9.2 mph - N/A   Clear
1:55 AM 30.2 °F 24.3 °F 21.2 °F 69% 30.27 in 10.0 mi WNW 5.8 mph - N/A   Clear
2:15 AM 28.4 °F 19.7 °F 21.2 °F 74% 30.27 in 10.0 mi West 9.2 mph - N/A   Clear
2:35 AM 30.2 °F 22.6 °F 21.2 °F 69% 30.26 in 10.0 mi West 8.1 mph - N/A   Clear
2:55 AM 28.4 °F 20.4 °F 21.2 °F 74% 30.26 in 10.0 mi WNW 8.1 mph - N/A   Clear
3:15 AM 28.4 °F 23.3 °F 21.2 °F 74% 30.26 in 10.0 mi WNW 4.6 mph - N/A   Clear
3:35 AM 28.4 °F 21.2 °F 21.2 °F 74% 30.26 in 10.0 mi West 6.9 mph - N/A   Clear
3:55 AM 28.4 °F 20.4 °F 21.2 °F 74% 30.25 in 10.0 mi WNW 8.1 mph - N/A   Clear
4:15 AM 28.4 °F 19.1 °F 21.2 °F 74% 30.25 in 10.0 mi WNW 10.4 mph - N/A   Clear
4:35 AM 26.6 °F 19.1 °F 19.4 °F 74% 30.25 in 10.0 mi WNW 6.9 mph - N/A   Clear
4:55 AM 28.4 °F - 21.2 °F 74% 30.25 in 10.0 mi Calm Calm - N/A   Clear
5:15 AM 26.6 °F 22.6 °F 21.2 °F 80% 30.25 in 10.0 mi West 3.5 mph - N/A   Clear
5:35 AM 26.6 °F 21.2 °F 21.2 °F 80% 30.25 in 10.0 mi WSW 4.6 mph - N/A   Clear
5:55 AM 24.8 °F - 19.4 °F 80% 30.25 in 10.0 mi Calm Calm - N/A   Clear
6:15 AM 24.8 °F 20.5 °F 19.4 °F 80% 30.24 in 10.0 mi WSW 3.5 mph - N/A   Clear
6:35 AM 24.8 °F 19.1 °F 19.4 °F 80% 30.25 in 10.0 mi SW 4.6 mph - N/A   Clear
6:55 AM 24.8 °F 17.9 °F 19.4 °F 80% 30.25 in 10.0 mi SW 5.8 mph - N/A   Clear
7:15 AM 24.8 °F 20.5 °F 19.4 °F 80% 30.25 in 10.0 mi SW 3.5 mph - N/A   Clear
7:35 AM 24.8 °F 20.5 °F 19.4 °F 80% 30.25 in 10.0 mi SW 3.5 mph - N/A   Clear
7:55 AM 24.8 °F 20.5 °F 19.4 °F 80% 30.24 in 10.0 mi SW 3.5 mph - N/A   Clear
8:15 AM 24.8 °F - 19.4 °F 80% 30.24 in 10.0 mi Calm Calm - N/A   Clear
8:35 AM 26.6 °F - 21.2 °F 80% 30.24 in 10.0 mi Calm Calm - N/A   Clear
8:55 AM 28.4 °F - 23.0 °F 80% 30.24 in 10.0 mi Calm Calm - N/A   Clear
9:15 AM 30.2 °F - 24.8 °F 80% 30.23 in 10.0 mi Calm Calm - N/A   Clear
9:35 AM 35.6 °F - 26.6 °F 70% 30.22 in 10.0 mi Calm Calm - N/A   Clear
9:55 AM 37.4 °F 30.8 °F 26.6 °F 65% 30.21 in 10.0 mi SE 9.2 mph - N/A   Clear
10:15 AM 39.2 °F 32.0 °F 26.6 °F 61% 30.20 in 10.0 mi SE 11.5 mph - N/A   Clear
10:35 AM 41.0 °F 34.3 °F 26.6 °F 57% 30.20 in 10.0 mi SE 11.5 mph - N/A   Clear
10:55 AM 42.8 °F 35.8 °F 28.4 °F 57% 30.19 in 10.0 mi SE 13.8 mph - N/A   Clear
11:15 AM 42.8 °F 36.2 °F 28.4 °F 57% 30.19 in 10.0 mi SSE 12.7 mph - N/A   Clear
11:35 AM 44.6 °F 38.1 °F 28.4 °F 53% 30.17 in 10.0 mi SSE 13.8 mph - N/A   Clear
11:55 AM 44.6 °F 37.8 °F 28.4 °F 53% 30.16 in 10.0 mi SSE 15.0 mph - N/A   Clear
12:15 PM 46.4 °F 40.1 °F 26.6 °F 46% 30.14 in 10.0 mi South 15.0 mph - N/A   Clear
12:35 PM 48.2 °F - 26.6 °F 43% 30.12 in 10.0 mi South 18.4 mph 21.9 mph N/A   Clear
12:55 PM 50.0 °F - 26.6 °F 40% 30.10 in 10.0 mi South 18.4 mph - N/A   Clear
1:15 PM 51.8 °F - 26.6 °F 38% 30.08 in 10.0 mi South 19.6 mph 25.3 mph N/A   Clear
1:35 PM 51.8 °F - 26.6 °F 38% 30.06 in 10.0 mi South 18.4 mph 24.2 mph N/A   Clear
1:55 PM 53.6 °F - 26.6 °F 35% 30.03 in 10.0 mi South 23.0 mph 27.6 mph N/A   Clear
2:15 PM 53.6 °F - 26.6 °F 35% 30.01 in 10.0 mi South 20.7 mph 26.5 mph N/A   Clear
2:35 PM 53.6 °F - 26.6 °F 35% 30.00 in 10.0 mi South 24.2 mph 29.9 mph N/A   Clear
2:55 PM 53.6 °F - 26.6 °F 35% 29.98 in 10.0 mi South 26.5 mph 29.9 mph N/A   Clear
3:15 PM 53.6 °F - 26.6 °F 35% 29.96 in 10.0 mi South 25.3 mph - N/A   Clear
3:35 PM 55.4 °F - 26.6 °F 33% 29.95 in 10.0 mi South 21.9 mph 29.9 mph N/A   Clear
3:55 PM 55.4 °F - 26.6 °F 33% 29.95 in 10.0 mi South 17.3 mph 25.3 mph N/A   Clear
4:15 PM 55.4 °F - 28.4 °F 36% 29.93 in 10.0 mi South 21.9 mph - N/A   Clear
4:35 PM 55.4 °F - 26.6 °F 33% 29.92 in 10.0 mi South 20.7 mph 25.3 mph N/A   Clear
4:55 PM 53.6 °F - 26.6 °F 35% 29.91 in 10.0 mi South 15.0 mph - N/A   Clear
5:15 PM 53.6 °F - 26.6 °F 35% 29.90 in 10.0 mi SSE 11.5 mph - N/A   Clear
5:35 PM 51.8 °F - 28.4 °F 41% 29.90 in 10.0 mi SSE 11.5 mph - N/A   Clear
5:55 PM 50.0 °F - 26.6 °F 40% 29.89 in 10.0 mi SSE 10.4 mph - N/A   Clear
6:15 PM 48.2 °F - 26.6 °F 43% 29.88 in 10.0 mi SSE 11.5 mph - N/A   Clear
6:35 PM 46.4 °F 41.1 °F 26.6 °F 46% 29.88 in 10.0 mi SSE 11.5 mph - N/A   Clear
6:55 PM 46.4 °F 40.7 °F 26.6 °F 46% 29.87 in 10.0 mi SSE 12.7 mph - N/A   Clear
7:15 PM 46.4 °F 41.1 °F 26.6 °F 46% 29.87 in 10.0 mi SSE 11.5 mph - N/A   Clear
7:35 PM 44.6 °F 38.8 °F 26.6 °F 49% 29.86 in 10.0 mi SSE 11.5 mph - N/A   Clear
7:55 PM 44.6 °F 38.4 °F 26.6 °F 49% 29.86 in 10.0 mi SSE 12.7 mph - N/A   Clear
8:15 PM 42.8 °F 36.2 °F 26.6 °F 53% 29.84 in 10.0 mi SSE 12.7 mph - N/A   Clear
8:35 PM 44.6 °F 38.1 °F 28.4 °F 53% 29.84 in 10.0 mi South 13.8 mph - N/A   Clear
8:55 PM 44.6 °F 37.8 °F 28.4 °F 53% 29.83 in 10.0 mi South 15.0 mph - N/A   Clear
9:15 PM 44.6 °F 38.1 °F 28.4 °F 53% 29.82 in 10.0 mi South 13.8 mph - N/A   Clear
9:35 PM 44.6 °F 39.7 °F 28.4 °F 53% 29.83 in 10.0 mi South 9.2 mph - N/A   Clear
9:55 PM 44.6 °F 39.2 °F 28.4 °F 53% 29.82 in 10.0 mi South 10.4 mph - N/A   Clear
10:15 PM 44.6 °F 38.4 °F 26.6 °F 49% 29.81 in 10.0 mi SSW 12.7 mph - N/A   Clear
10:35 PM 44.6 °F 39.2 °F 28.4 °F 53% 29.81 in 10.0 mi SSW 10.4 mph - N/A   Clear
10:55 PM 44.6 °F 39.7 °F 28.4 °F 53% 29.81 in 10.0 mi SW 9.2 mph - N/A   Clear
11:15 PM 41.0 °F 34.7 °F 28.4 °F 61% 29.82 in 10.0 mi WNW 10.4 mph - N/A   Clear
11:35 PM 39.2 °F 35.9 °F 28.4 °F 65% 29.81 in 10.0 mi West 4.6 mph - N/A   Clear
11:55 PM 39.2 °F 35.9 °F 28.4 °F 65% 29.81 in 10.0 mi WSW 4.6 mph - N/A   Clear